User: anonymous   Login
Location: Gleizolles
(44.4833°N, 6.7667°E)
Time: 08:18:53
(UTC+00:00)
Language:

KAITUO 1B - Orbit

View from above orbital plane
View from above orbital plane
View from above satellite
View from above satellite

Ground track
Ground track

The orbit data is extracted from the following two-line orbital elements,

1 40912U 15049P   22330.83363603  .00011156  00000-0  38510-3 0  9991
2 40912  97.4326 341.8224 0013981  86.6740 356.7923 15.30037571398542
Epoch (UTC): 26 November 2022 20:00:26
Eccentricity: 0.0013981
inclination: 97.4326°
perigee height: 466 km
apogee height: 485 km
right ascension of ascending node: 341.8224°
argument of perigee: 86.6740°
revolutions per day: 15.30037571
mean anomaly at epoch: 356.7923°
orbit number at epoch: 39854

The dashed part of the orbit path shows where the satellite is in the earth's shadow,  

DLR